User: anonymous   Login
Location: Unspecified
(0.0000°N, 0.0000°E)
Time: 02:00:05
(UTC+00:00)
Language:

Picosat 3 - Orbit

View from above orbital plane
View from above orbital plane
View from above satellite
View from above satellite

Ground track
Ground track

The orbit data is extracted from the following two-line orbital elements,

1 26091U 00004J   17324.96473829  .00000309  00000-0  98118-4 0  9990
2 26091 100.1936  87.2381 0028835   1.5610 358.5663 14.48741581936331
Epoch (UTC): 20 November 2017 23:09:13
Eccentricity: 0.0028835
inclination: 100.1936°
perigee height: 709 km
apogee height: 750 km
right ascension of ascending node: 87.2381°
argument of perigee: 1.5610°
revolutions per day: 14.48741581
mean anomaly at epoch: 358.5663°
orbit number at epoch: 93633

The dashed part of the orbit path shows where the satellite is in the earth's shadow,  

DLR